Lid_Strength_Index
3 6 5 7 11 13 15 13 11 11 11 10 9 9 9 11 10 12 8 7 3 2 -0 -0 -1 -1 -1 -1 -1 -1 -1 -1 -1 -1 -1 -1 -1 -1 -1 -0 0 -0 -1 -1 -1 -1 -1 -0 -1
5 6 7 9 13 17 15 12 11 9 9 10 11 11 11 11 12 10 9 4 3 1 1 -0 -1 -1 -1 -1 -1 -1 -1 -1 -1 -1 -1 -1 -1 -0 -0 -0 -0 -0 -0 -1 -1 0 0 -1 -1
5 6 9 11 14 16 15 11 10 10 9 9 12 13 12 12 12 9 8 3 3 3 1 0 -0 -1 -1 -1 -1 -0 -1 -1 -1 -1 -1 -1 -0 0 0 -0 -0 -0 -0 -0 0 -1 -1 -0 -0
7 9 9 13 15 13 12 10 9 11 11 9 11 13 14 12 11 8 5 3 4 3 2 0 -0 -0 -0 -0 -0 0 0 -0 -0 -0 -0 0 0 1 1 0 0 1 1 1 -1 -0 -1 -1 -1
8 9 12 15 14 12 10 9 9 11 11 10 10 12 13 12 11 9 5 5 5 4 3 1 0 0 -0 0 0 0 1 1 1 1 1 1 1 1 1 1 1 1 1 -1 -1 -1 -1 -1 -1
11 9 14 16 14 11 9 8 9 11 11 11 11 13 13 12 9 7 5 5 5 4 3 3 2 1 1 1 1 1 1 1 1 1 2 2 2 2 2 1 1 1 -1 -1 -1 -1 -1 -1 -1
12 11 14 15 14 12 10 7 10 10 11 11 11 12 13 13 10 7 6 7 6 6 5 5 4 3 3 2 2 2 2 2 2 2 3 3 2 2 2 2 1 -0 -0 -0 -0 -0 -1 -1 -1
10 11 14 13 14 13 9 8 8 9 9 12 11 12 12 12 10 6 7 7 7 7 6 6 5 6 6 6 4 4 4 4 4 4 4 4 3 3 2 2 0 1 1 -0 0 -0 -1 -1 -1
9 11 14 13 13 12 10 9 10 11 10 12 12 12 12 11 8 8 8 8 8 7 8 8 7 7 7 7 7 6 6 6 5 6 6 7 7 7 6 3 1 1 1 0 -0 -0 0 1 1
10 12 12 10 10 10 9 11 11 12 12 12 13 13 12 11 9 8 8 8 8 8 8 8 8 8 8 8 9 10 10 11 11 11 11 10 9 8 7 5 3 1 1 1 1 2 3 4 5
11 12 10 10 9 9 10 12 11 12 12 11 10 12 12 12 11 9 8 7 8 8 8 8 8 9 9 9 10 11 12 12 13 13 13 11 10 10 10 9 8 6 6 7 7 7 7 6 5
13 11 9 9 8 10 11 10 12 11 10 9 9 12 12 12 12 10 9 8 8 8 9 9 10 11 10 12 11 12 13 13 13 14 13 12 11 10 10 9 10 9 9 9 9 10 9 8 7
13 12 11 9 9 10 11 11 11 11 9 11 11 11 12 11 10 10 9 9 8 8 9 10 11 11 11 12 12 13 13 13 13 13 13 12 11 11 11 11 10 10 10 11 12 11 9 9 8
13 13 13 12 11 10 11 11 11 9 10 9 10 10 11 11 10 10 11 10 9 8 10 10 10 11 12 12 12 13 13 13 14 14 13 12 12 12 11 11 11 11 11 13 13 12 10 11 9
14 15 15 14 13 12 12 13 13 9 9 9 9 10 11 11 11 10 10 9 9 9 10 11 11 11 12 13 12 12 13 14 14 14 14 13 12 12 12 12 12 12 13 14 14 13 12 11 10
16 17 18 15 13 12 12 15 12 10 11 11 11 11 11 12 11 10 10 10 10 10 10 10 10 11 12 12 13 12 12 13 14 14 14 14 12 12 12 12 12 13 15 15 13 13 13 12 12
18 20 19 17 14 14 14 16 13 14 13 13 13 13 12 11 11 11 10 10 10 10 10 10 10 11 12 11 12 12 13 13 14 15 15 14 12 12 12 12 13 14 15 15 14 13 14 13 13
19 19 18 19 16 15 16 16 14 14 14 14 13 13 13 12 11 10 10 10 10 10 10 10 10 11 12 12 12 12 12 13 13 14 14 14 12 11 12 13 14 14 15 15 15 14 14 14 14
18 18 18 19 16 15 17 16 15 13 15 15 14 13 13 12 10 10 11 11 10 10 10 10 11 12 12 13 14 13 13 14 14 14 14 14 12 12 13 14 14 15 15 16 15 14 14 14 13
17 18 18 18 16 16 18 18 17 16 15 15 13 13 13 13 14 12 11 12 11 11 10 11 11 11 11 11 12 13 12 13 13 14 14 14 12 12 13 14 14 15 15 15 15 13 14 14 14
17 17 18 18 18 17 20 18 19 17 16 15 14 13 14 14 15 15 13 12 12 11 11 11 11 11 11 11 12 14 15 15 15 16 15 14 13 12 13 14 14 14 14 15 14 14 14 15 15
18 16 16 17 18 20 20 22 21 18 17 17 16 17 16 16 16 16 15 13 13 12 12 11 11 11 11 12 13 15 15 15 16 15 15 15 13 12 12 14 13 14 13 14 14 13 14 14 14
17 16 16 16 18 19 22 23 22 21 19 17 17 17 17 17 17 17 16 13 13 12 13 13 12 12 12 12 13 14 15 15 16 16 16 15 14 12 13 13 14 14 13 14 13 14 13 14 14
16 17 18 19 20 24 21 21 20 20 18 19 17 16 16 17 16 15 14 13 14 14 14 15 14 14 14 14 14 14 14 16 16 17 16 16 16 14 12 12 13 14 14 14 13 14 13 14 14
17 19 21 23 23 24 23 22 18 18 18 18 17 17 18 17 15 14 14 14 15 15 15 15 15 15 14 14 14 14 15 15 15 16 16 16 15 15 13 13 14 14 14 13 14 13 13 13 13
18 17 20 24 25 23 21 23 20 18 18 17 17 17 18 17 16 14 14 14 14 15 15 15 15 15 15 14 14 15 15 15 15 15 15 15 15 14 13 13 13 13 12 12 13 13 13 13 13
18 19 16 19 22 22 21 21 18 18 19 19 18 18 18 17 16 16 15 14 14 15 15 15 15 15 15 15 15 15 15 15 15 15 15 15 15 14 14 13 13 14 13 14 13 13 14 15 14
17 16 19 19 24 25 22 23 21 20 19 19 19 18 17 18 16 16 16 16 15 14 15 15 15 15 15 15 15 14 15 15 15 15 15 15 14 14 14 13 13 14 15 14 13 13 14 14 14
19 19 18 18 18 22 26 22 19 18 17 18 18 17 16 16 16 16 16 17 17 15 15 15 15 15 16 15 15 15 14 14 15 15 15 14 14 14 14 13 14 15 15 15 15 15 15 15 16
20 18 16 20 23 22 22 22 19 18 18 18 18 16 16 16 16 17 17 17 17 17 16 16 16 16 15 15 15 15 15 14 14 15 15 15 15 14 14 14 14 15 15 14 14 15 15 15 15